Tracking 32963 objects as of 21-Jan-2026
HD Live streaming from Space Station
objects crossing your sky now

STARLINK-35983

Track STARLINK-35983 now!
10-day predictions
STARLINK-35983 is classified as:


NORAD ID: 66902
Int'l Code: 2025-283AA
Perigee: 481.5 km
Apogee: 483.2 km
Inclination: 53.2 °
Period: 94.1 minutes
Semi major axis: 6853 km
RCS: Unknown
Launch date: December 4, 2025
Source: United States (US)
Launch site: AIR FORCE WESTERN TEST RANGE (AFWTR)
Your satellite tracking list
Your tracking list is empty




NASA's NSSDC Master Catalog

Two Line Element Set (TLE):
1 66902U 25283AA  26020.94228603 -.00012683  00000-0 -41682-3 0  9993
2 66902  53.1599 245.9537 0001207  95.2192 264.8946 15.30200413  8534
Source of the keplerian elements: AFSPC